Temperature
21 21 21 21 19 17 19 20 20 21 21 21 21 20 19 18 18 17 18 18 18 18 18 18 18 18 18 18 18 18 18 18 18 18 18 18 18 18 18 18 18 18 18 18 18 18 18 18 18
21 21 21 21 17 18 19 20 20 21 22 22 21 20 19 18 18 18 18 18 18 18 18 18 18 18 17 17 17 17 17 17 18 18 18 18 18 18 18 18 18 18 18 18 18 18 18 18 18
22 21 21 18 18 18 20 20 21 22 22 22 21 20 19 19 18 18 18 18 18 18 18 18 18 18 17 17 17 17 17 17 17 17 17 18 18 18 18 18 18 18 18 18 18 18 18 18 18
22 21 21 18 19 20 20 21 21 22 22 22 20 19 19 19 19 19 18 18 18 18 18 18 18 18 18 17 17 17 17 17 17 17 17 17 17 17 17 18 18 18 17 17 17 17 18 18 17
22 21 18 19 20 21 21 22 22 21 21 21 20 19 19 19 19 19 18 18 18 18 18 18 18 18 18 17 17 17 17 17 17 17 17 17 17 17 17 17 17 17 17 17 17 17 17 17 17
22 19 18 19 20 21 21 22 22 21 21 21 20 19 19 19 19 19 19 19 18 18 18 18 18 18 18 17 17 17 17 17 17 17 17 17 17 17 17 17 17 17 17 17 17 17 17 17 17
21 18 19 19 20 21 22 23 22 21 21 21 20 19 19 19 19 19 19 19 18 18 18 18 18 18 17 17 17 17 17 17 17 17 17 17 17 17 17 17 17 17 17 17 17 17 17 17 17
23 18 19 19 20 21 22 23 23 22 21 21 21 19 19 19 19 19 19 19 18 18 18 18 18 18 18 17 17 17 17 17 17 17 17 17 17 17 17 17 17 16 16 16 16 17 17 17 16
23 18 19 20 20 21 22 22 23 23 22 21 21 21 20 19 19 19 19 18 18 18 18 18 18 18 18 17 17 17 17 17 17 17 17 17 17 17 16 16 16 16 16 16 16 16 16 16 16
22 19 21 21 21 21 22 22 22 22 21 21 20 20 20 19 19 19 19 18 18 18 18 18 18 18 18 17 17 17 17 17 17 17 17 17 17 16 16 16 16 16 16 16 16 16 16 16 16
22 20 21 22 23 22 22 22 22 21 20 20 20 20 20 19 19 19 19 19 19 18 18 18 18 18 18 17 17 17 17 17 17 17 17 17 17 16 16 16 16 16 16 16 16 16 16 16 16
22 22 22 23 23 23 22 22 22 21 21 21 21 21 20 20 19 19 19 19 19 18 18 18 18 18 18 17 17 17 17 17 17 17 17 17 16 16 16 16 16 16 16 16 16 16 16 16 16
22 22 23 23 23 23 22 22 21 21 22 21 21 21 20 20 20 19 19 19 19 19 18 18 18 18 18 17 17 17 17 17 17 17 16 16 16 16 16 16 16 16 16 16 16 16 15 16 16
22 22 23 23 23 23 22 21 21 21 21 21 21 20 20 20 20 19 19 19 19 19 19 18 18 18 18 18 17 17 17 17 17 17 16 16 16 16 16 16 16 16 16 16 15 15 15 15 15
23 22 22 22 22 22 22 21 20 21 21 21 20 20 20 20 20 20 19 19 19 19 19 18 18 18 18 18 17 17 17 17 17 17 16 16 16 16 16 16 16 16 16 15 15 15 15 15 15
22 21 20 21 21 22 21 19 20 21 21 20 20 20 20 20 20 20 20 19 19 19 19 18 18 18 18 18 17 17 17 17 17 17 16 16 16 16 16 16 16 16 15 15 15 15 15 15 15
20 19 20 21 21 21 20 19 19 21 20 20 20 20 20 20 20 20 20 20 19 19 19 19 18 18 18 18 17 17 17 17 17 17 16 16 16 16 16 16 16 16 15 15 15 15 15 15 15
19 20 20 20 21 21 19 19 19 20 20 19 19 20 20 20 20 20 20 19 19 19 19 19 18 18 18 18 17 17 17 17 17 16 16 16 16 16 16 16 15 15 15 15 15 15 15 15 15
20 20 20 21 22 21 19 19 19 20 19 19 19 19 19 19 20 20 19 19 19 19 19 19 18 18 18 17 17 17 17 17 16 16 16 16 16 16 16 15 15 15 15 15 15 15 15 15 15
21 20 20 21 21 21 19 19 19 19 19 19 19 19 19 19 19 19 19 19 19 19 19 19 18 18 18 18 17 17 17 16 16 16 16 16 16 16 15 15 15 15 15 15 15 15 15 14 14
20 20 20 20 21 20 19 18 18 19 19 19 19 19 19 19 19 19 19 19 19 19 19 18 18 18 18 18 17 17 16 16 16 16 16 16 16 15 15 15 15 15 15 15 14 14 14 14 14
20 21 21 21 19 18 19 17 18 18 18 18 18 19 19 19 19 19 19 19 19 19 19 19 18 18 18 17 17 17 17 16 16 16 16 15 15 15 15 15 15 15 15 15 14 14 14 14 14
21 22 21 21 19 18 18 17 17 17 18 17 18 18 19 19 19 19 19 19 19 19 18 18 18 18 17 17 17 17 17 16 16 16 15 15 15 15 15 15 15 15 15 14 14 14 14 14 14
21 20 19 17 17 17 18 17 17 17 18 18 18 18 19 19 19 19 19 19 19 18 18 18 18 18 17 17 17 17 17 16 16 16 15 15 15 15 15 15 15 15 14 14 14 14 14 14 14
20 18 17 17 16 16 18 18 17 18 19 19 18 18 19 19 19 18 18 18 18 18 18 18 18 17 17 17 17 17 17 16 16 16 15 15 15 15 15 15 14 14 14 14 14 14 14 14 13
19 18 17 17 16 16 18 17 18 19 19 20 19 19 19 19 18 18 18 18 18 18 18 18 18 17 17 17 17 16 16 16 16 16 15 15 15 15 15 14 14 14 14 14 14 14 13 13 13
19 18 17 16 17 17 16 17 18 19 18 18 18 18 18 19 18 18 18 18 18 18 18 18 18 17 17 17 17 16 16 16 16 16 15 15 15 15 14 14 14 14 14 14 14 13 13 13 13
19 18 16 16 17 16 17 17 17 18 18 17 17 17 18 18 18 18 18 18 18 18 18 18 18 17 17 16 16 16 16 16 16 15 15 15 15 15 14 14 14 14 14 14 13 13 13 13 13
19 19 17 15 15 16 16 16 18 17 17 17 17 18 18 18 18 18 18 18 18 18 18 17 17 17 17 17 16 16 16 15 15 15 15 15 15 15 14 14 14 14 14 13 13 13 13 13 13
18 18 16 16 16 15 15 16 18 17 17 17 17 18 18 18 18 18 18 18 17 17 17 17 17 17 17 16 16 16 16 15 15 15 15 15 15 15 14 14 14 14 13 13 13 13 13 13 13
Wind_Speed
1 0 2 3 5 6 3 1 2 3 4 5 8 10 8 6 4 5 2 8 9 6 6 8 9 9 9 10 9 10 10 10 10 11 11 12 12 13 13 13 13 12 12 12 12 12 12 12 12
0 1 3 5 5 4 1 0 4 3 6 7 8 8 7 5 4 6 5 8 9 7 6 8 9 9 9 10 9 10 10 10 10 11 11 12 12 12 12 13 12 12 12 11 11 11 11 12 11
0 1 4 4 4 4 4 2 4 4 5 5 5 6 5 4 4 5 8 10 9 7 7 9 10 10 9 9 10 10 10 10 10 11 11 12 12 12 12 12 12 11 11 11 11 11 11 11 11
2 4 4 5 4 2 5 4 4 6 5 5 6 6 4 3 4 7 11 11 10 7 7 10 11 10 10 10 10 10 10 10 10 11 11 11 11 11 11 11 11 10 10 10 10 10 10 10 10
3 4 5 4 2 1 3 4 5 5 4 4 7 6 3 2 8 11 12 11 10 7 7 10 11 10 10 10 9 10 10 10 10 11 11 11 11 11 11 10 10 10 10 10 10 10 9 9 9
4 5 5 2 2 1 1 3 6 7 6 6 7 6 2 3 9 10 11 10 10 9 7 9 11 10 10 9 9 9 9 10 10 11 11 11 11 11 11 10 10 10 10 10 10 10 9 9 9
4 4 3 3 2 2 2 3 6 7 6 4 7 6 3 3 6 9 10 9 9 8 7 6 8 8 8 9 8 9 9 9 9 10 10 10 11 11 10 11 11 11 11 10 9 9 9 9 9
5 5 3 2 3 1 1 3 5 7 5 6 5 7 6 6 7 9 9 8 8 7 6 5 6 6 6 6 8 8 8 9 9 9 10 10 10 10 10 9 10 10 10 10 9 9 9 9 9
4 5 2 3 4 2 2 5 3 5 7 4 4 6 8 10 10 9 7 6 6 7 5 5 5 5 5 5 6 6 7 7 8 8 9 8 7 6 7 8 9 10 10 10 10 10 10 10 10
4 3 3 4 5 4 3 4 4 5 6 5 6 6 9 10 11 10 9 8 8 7 6 5 5 4 5 4 5 4 4 4 5 6 7 6 6 5 6 7 8 8 8 9 9 9 9 9 8
3 4 3 2 4 4 3 3 3 7 4 6 10 11 11 10 10 10 9 9 8 8 7 6 5 5 4 3 4 3 3 4 4 4 5 5 5 4 4 4 5 6 6 6 7 7 6 6 6
2 1 3 4 4 3 3 3 3 5 7 9 13 13 12 11 11 10 9 8 7 7 7 7 6 5 4 4 3 3 3 3 3 4 5 5 3 3 3 3 3 3 3 3 4 4 5 6 7
2 1 2 4 5 5 5 3 3 3 6 9 11 11 11 11 9 8 9 8 7 7 7 7 7 6 4 4 2 3 3 3 3 4 6 6 4 3 2 2 3 3 3 3 3 4 5 5 5
3 3 2 3 4 3 5 2 3 3 6 10 11 11 10 10 10 8 8 7 7 8 7 7 7 7 6 4 3 3 4 4 4 4 5 6 5 4 3 2 2 2 3 4 4 4 4 3 4
3 2 1 1 3 3 4 1 3 5 7 9 10 10 9 8 9 10 10 9 9 8 8 8 8 7 6 5 4 3 4 4 3 3 5 6 6 5 4 3 2 2 4 5 5 5 5 4 4
2 2 1 3 3 3 5 4 5 5 8 7 7 8 8 8 9 9 9 8 8 8 8 8 8 8 7 5 5 3 4 4 3 3 5 6 7 7 5 3 2 3 5 4 4 4 4 4 3
2 1 3 3 4 4 5 4 5 4 8 7 7 7 8 6 6 7 8 9 9 8 8 8 8 8 7 6 5 4 4 4 4 5 5 6 7 7 6 3 3 5 4 3 4 3 3 3 3
4 3 3 5 4 5 5 5 5 4 7 8 7 7 7 8 7 7 8 8 8 8 8 8 7 7 6 5 4 3 3 2 3 4 5 5 6 7 6 4 4 4 4 3 3 4 3 3 2
5 4 4 5 4 4 6 5 6 6 6 7 7 6 7 9 7 7 7 7 7 7 8 7 7 6 6 4 4 3 3 2 2 2 4 5 6 6 6 4 3 4 4 3 4 3 4 2 2
4 4 4 3 2 3 4 5 6 6 7 9 10 9 9 7 5 6 6 7 7 7 7 7 7 6 6 5 4 4 4 2 2 2 3 4 6 6 5 4 3 4 4 4 4 3 2 1 2
4 5 5 4 1 1 2 3 4 4 4 5 7 8 8 10 10 9 8 7 7 7 8 8 7 7 6 6 4 4 3 3 2 2 1 2 5 6 5 5 4 4 4 4 3 4 4 2 1
5 6 6 3 1 3 2 3 7 6 4 5 7 7 7 8 8 9 8 7 8 9 8 8 8 7 6 6 7 7 5 4 3 3 2 2 4 5 5 5 5 4 3 4 3 3 3 3 1
6 5 3 2 2 2 2 3 6 2 5 7 8 8 8 8 9 10 9 9 8 7 6 6 7 7 6 6 8 8 5 4 3 2 3 3 2 3 5 5 5 4 3 3 3 3 3 3 3
3 4 5 5 3 3 6 5 5 5 9 8 8 8 8 9 9 9 8 7 7 6 5 5 6 6 5 6 7 8 8 6 5 4 4 3 2 2 3 4 4 4 3 3 3 3 4 3 3
4 5 3 4 2 6 3 4 7 7 7 9 10 10 9 9 9 8 8 8 8 7 7 6 7 6 6 6 6 7 8 8 8 6 5 4 3 2 3 4 3 3 3 4 4 4 3 3 3
3 7 6 4 4 4 3 4 5 4 2 3 6 7 7 8 8 9 10 10 9 9 8 7 7 6 7 7 6 6 7 6 5 6 5 5 4 4 4 4 4 4 4 4 4 3 2 2 2
4 4 7 5 2 2 4 3 5 3 2 3 4 5 6 7 8 9 8 8 8 8 8 9 8 6 6 7 6 5 5 6 5 5 4 4 4 4 5 5 4 4 4 4 4 3 2 2 2
5 6 5 4 3 3 4 4 4 4 3 2 4 5 5 5 6 7 7 8 8 8 7 7 8 7 6 6 6 5 5 5 5 4 5 5 4 4 5 4 4 4 4 4 4 3 3 3 2
2 3 3 3 4 4 3 6 5 7 6 5 6 6 6 6 7 7 6 6 6 6 6 6 6 5 5 5 5 5 5 4 4 4 5 5 4 5 5 5 5 5 4 4 5 4 4 4 2
5 5 5 3 3 3 3 6 4 5 4 4 4 5 5 6 6 5 5 4 4 5 5 5 5 5 5 5 5 6 5 5 4 4 4 5 5 5 5 5 5 5 5 4 5 5 4 4 3
Wind_Direction
267 134 98 60 54 55 64 13 115 78 62 56 73 82 84 70 97 134 170 133 130 128 121 113 109 104 98 94 91 89 85 83 84 86 86 84 85 87 88 88 87 86 87 90 91 93 94 95 94
75 96 70 60 80 80 41 86 93 99 132 115 81 84 80 72 89 117 129 139 132 129 124 117 113 108 103 100 94 89 88 88 89 89 89 87 87 89 90 88 87 86 86 88 90 91 93 92 92
258 108 80 71 96 141 156 187 137 108 112 100 81 62 80 113 121 134 152 144 132 129 127 126 119 112 108 104 99 93 91 90 93 94 92 90 89 89 90 89 88 87 87 88 90 90 93 92 91
66 50 57 75 95 171 164 179 137 104 75 74 99 73 67 116 140 140 145 139 128 126 130 133 125 118 113 109 104 99 95 93 94 96 96 92 91 92 92 92 89 86 86 86 89 90 93 93 91
70 71 62 65 88 122 153 160 133 113 99 88 96 95 75 60 117 130 138 136 131 132 135 135 130 125 120 115 109 104 100 96 95 97 98 95 92 93 96 96 93 90 89 88 89 89 90 90 90
61 68 80 76 89 101 122 128 101 95 109 111 104 107 112 129 124 134 138 138 139 140 142 138 134 131 127 120 113 108 102 99 99 98 100 98 95 94 97 97 94 91 95 93 90 85 84 86 84
107 97 122 131 112 86 141 118 112 122 127 136 126 108 133 165 145 138 138 138 138 137 136 134 136 135 132 126 119 116 110 106 103 101 102 101 97 96 98 100 95 94 98 94 87 83 83 81 78
129 106 98 119 130 136 150 111 120 115 118 136 122 129 162 190 151 133 130 130 128 132 139 139 138 136 129 126 128 126 120 110 106 104 103 103 102 99 95 93 97 96 94 91 85 80 81 77 72
95 84 136 179 158 167 132 105 85 92 103 95 103 142 161 153 134 123 116 114 131 141 145 145 147 144 144 141 136 130 119 112 107 105 106 106 99 98 98 93 91 89 87 82 77 76 75 69 65
93 124 203 190 164 161 147 127 128 95 92 88 85 106 131 135 136 138 140 141 146 153 159 157 156 159 157 148 132 123 114 114 109 109 107 107 105 99 98 95 93 89 83 76 71 68 65 61 59
129 164 181 142 144 141 127 123 114 122 131 152 147 150 148 146 146 149 152 153 157 158 156 157 160 157 152 139 136 133 119 118 116 123 123 117 109 99 90 85 84 83 75 64 63 59 59 62 66
115 174 153 150 121 113 125 123 105 144 182 171 158 156 152 152 156 159 159 158 155 153 156 158 156 151 153 144 138 135 129 131 132 136 132 125 112 101 101 94 86 83 81 72 65 68 67 72 75
119 171 143 142 125 130 123 128 131 157 162 152 149 151 156 157 160 163 161 158 152 152 155 158 158 155 151 134 133 121 123 130 133 129 133 132 121 118 108 104 100 97 93 93 78 79 78 76 77
185 156 145 140 131 139 134 147 117 176 147 145 151 157 163 164 166 161 160 162 164 164 159 152 152 152 142 135 131 126 126 119 116 121 131 134 132 128 116 100 93 98 100 106 102 90 82 74 72
141 114 10 179 145 164 122 40 194 191 149 156 162 164 167 171 168 169 173 173 171 169 160 155 152 147 140 137 135 130 124 116 114 121 121 127 129 127 119 109 100 99 105 102 93 82 82 76 70
78 95 222 250 171 185 137 229 252 174 150 170 170 174 175 179 178 177 174 173 169 159 155 155 151 143 143 141 132 127 123 115 114 120 118 123 126 125 116 108 106 107 101 100 97 88 83 72 68
34 179 232 262 198 176 156 216 252 186 161 182 185 184 180 178 179 178 173 172 167 160 157 152 149 148 150 143 132 129 118 112 117 117 120 124 123 123 116 105 108 107 95 87 98 87 99 94 79
224 222 231 229 227 172 173 217 239 196 170 186 193 192 180 180 189 182 172 168 164 157 154 151 144 149 146 134 118 103 95 103 108 116 126 126 124 119 114 106 99 103 92 82 87 90 80 91 88
207 216 243 246 228 170 185 211 229 216 182 190 197 194 188 194 194 175 165 158 154 155 154 152 148 158 149 140 139 137 138 133 117 117 121 124 125 122 113 107 103 104 107 115 111 100 87 68 72
230 230 250 271 237 169 183 224 234 216 199 195 194 196 196 190 180 173 166 159 160 167 165 160 163 162 162 164 162 158 150 145 139 121 113 125 126 127 127 124 122 116 111 104 104 105 98 68 69
243 218 224 236 333 59 108 300 267 250 220 209 196 193 192 184 181 180 176 174 167 172 174 172 171 168 168 160 136 114 87 72 72 88 107 127 130 127 128 134 130 127 127 134 135 129 122 118 21
244 234 215 208 118 259 167 252 270 244 235 214 206 197 192 187 178 177 176 176 178 186 181 171 166 167 168 158 149 147 149 160 182 171 158 149 135 133 136 135 133 131 134 142 156 138 133 132 135
224 232 198 198 178 276 248 191 272 245 236 228 213 204 192 183 175 177 178 177 178 180 176 171 166 167 168 166 165 160 162 174 161 143 141 143 147 145 143 141 135 136 142 147 140 128 125 131 143
179 55 35 48 78 270 235 189 264 226 218 218 213 207 192 182 181 179 179 173 174 171 169 165 164 168 171 168 169 167 166 164 153 156 160 163 161 152 150 144 142 147 150 151 146 138 129 123 122
85 84 28 356 355 256 248 195 245 239 216 204 200 202 193 181 178 175 174 175 179 177 176 171 169 172 174 174 175 175 173 171 172 172 175 173 172 173 179 162 158 157 153 148 138 135 136 135 131
184 143 161 204 227 275 313 226 256 272 218 184 178 181 180 178 176 181 184 182 184 185 177 171 177 181 179 176 175 175 173 172 176 178 176 181 186 188 180 170 166 157 150 144 141 134 143 132 136
155 176 176 157 228 249 276 284 316 354 80 137 155 158 179 185 182 184 185 185 185 185 182 176 173 179 181 178 169 165 170 170 176 180 172 177 182 177 170 169 166 160 150 148 143 137 147 133 142
163 156 102 136 197 251 271 253 236 247 236 202 180 182 195 193 187 184 185 187 190 188 183 174 169 177 180 174 173 166 166 171 170 167 173 181 183 175 162 162 159 156 153 148 141 144 149 135 156
146 137 126 146 170 177 236 263 230 209 207 193 196 190 184 187 188 186 189 192 188 181 174 174 171 166 171 171 168 159 165 160 159 174 183 184 178 170 168 168 162 163 161 156 151 157 150 145 150
180 181 149 165 236 192 200 260 280 201 198 175 183 189 188 187 183 182 177 173 171 177 177 179 174 170 180 178 170 165 163 157 160 177 186 178 175 177 174 169 164 172 169 163 160 161 153 152 155
Height
1501 1500 1500 1501 1504 1515 1518 1512 1507 1505 1505 1505 1504 1506 1509 1513 1517 1524 1520 1519 1519 1519 1518 1518 1517 1517 1516 1516 1515 1515 1514 1514 1514 1513 1513 1513 1512 1512 1512 1512 1513 1513 1513 1513 1514 1514 1514 1514 1514
1501 1500 1501 1502 1512 1526 1521 1510 1508 1505 1506 1505 1507 1509 1511 1514 1516 1518 1518 1519 1519 1519 1519 1518 1518 1517 1517 1517 1516 1516 1516 1515 1515 1514 1514 1514 1514 1514 1514 1514 1514 1514 1514 1514 1515 1515 1515 1515 1515
1501 1501 1502 1505 1515 1522 1518 1509 1506 1505 1505 1505 1508 1511 1513 1516 1517 1518 1519 1519 1520 1519 1519 1519 1519 1518 1518 1518 1518 1517 1517 1516 1516 1516 1516 1515 1515 1515 1515 1515 1515 1515 1515 1515 1516 1516 1516 1516 1516
1501 1502 1503 1510 1515 1511 1509 1506 1504 1505 1507 1507 1509 1513 1516 1517 1518 1518 1519 1520 1520 1520 1520 1520 1520 1520 1519 1519 1519 1519 1518 1518 1517 1517 1517 1517 1516 1516 1516 1516 1516 1516 1516 1516 1516 1517 1517 1517 1517
1501 1502 1509 1516 1513 1508 1505 1504 1504 1505 1507 1509 1509 1514 1517 1519 1519 1519 1520 1521 1521 1521 1521 1521 1521 1521 1521 1521 1520 1520 1520 1519 1519 1519 1518 1518 1518 1518 1517 1517 1517 1517 1517 1517 1517 1518 1518 1518 1518
1502 1504 1517 1521 1514 1508 1505 1504 1504 1507 1509 1511 1512 1515 1518 1520 1520 1520 1521 1522 1522 1522 1522 1522 1522 1522 1522 1522 1522 1522 1521 1521 1521 1520 1520 1520 1519 1519 1519 1518 1518 1518 1518 1518 1518 1519 1519 1519 1519
1503 1508 1516 1516 1515 1511 1506 1504 1505 1507 1509 1511 1511 1515 1519 1520 1521 1521 1522 1523 1523 1523 1523 1523 1523 1524 1524 1524 1523 1523 1523 1523 1522 1522 1522 1521 1521 1521 1520 1520 1519 1519 1519 1520 1520 1520 1520 1520 1520
1501 1507 1514 1515 1514 1512 1506 1505 1506 1506 1509 1511 1512 1514 1517 1520 1521 1522 1523 1524 1524 1524 1525 1525 1525 1525 1525 1525 1525 1525 1525 1524 1524 1524 1523 1523 1523 1522 1522 1522 1521 1521 1521 1521 1521 1521 1521 1521 1520
1501 1511 1517 1513 1512 1510 1505 1505 1507 1508 1509 1511 1512 1513 1515 1518 1521 1522 1523 1524 1525 1525 1526 1526 1526 1526 1526 1527 1527 1527 1526 1526 1526 1525 1525 1525 1524 1524 1524 1524 1523 1523 1523 1523 1523 1523 1522 1522 1521
1502 1513 1510 1505 1505 1506 1506 1505 1507 1509 1510 1512 1513 1514 1516 1518 1520 1521 1523 1524 1525 1525 1526 1527 1527 1527 1527 1527 1528 1528 1528 1528 1527 1527 1527 1526 1526 1526 1525 1525 1525 1525 1525 1525 1524 1524 1524 1523 1523
1501 1506 1503 1503 1503 1504 1505 1506 1507 1508 1512 1512 1512 1514 1516 1518 1519 1520 1522 1523 1524 1525 1526 1527 1528 1528 1528 1528 1529 1529 1529 1529 1529 1529 1528 1528 1528 1527 1527 1527 1527 1527 1526 1526 1526 1526 1525 1525 1525
1502 1502 1502 1502 1503 1504 1505 1506 1507 1507 1509 1510 1511 1513 1515 1517 1518 1520 1521 1523 1524 1525 1526 1527 1528 1528 1529 1529 1529 1530 1530 1530 1530 1530 1529 1529 1529 1529 1529 1528 1528 1528 1528 1528 1528 1527 1527 1527 1527
1502 1502 1501 1502 1502 1503 1505 1505 1506 1507 1509 1510 1512 1513 1515 1516 1518 1519 1521 1522 1524 1525 1525 1527 1528 1528 1529 1530 1530 1530 1530 1531 1531 1531 1531 1530 1530 1530 1530 1530 1529 1529 1529 1529 1529 1529 1529 1528 1528
1501 1501 1501 1502 1502 1503 1505 1506 1507 1508 1508 1510 1511 1513 1514 1516 1517 1519 1520 1521 1522 1524 1525 1526 1527 1528 1529 1530 1530 1531 1531 1531 1531 1532 1531 1531 1531 1531 1531 1531 1530 1530 1530 1530 1530 1530 1530 1530 1530
1500 1503 1503 1502 1502 1504 1505 1508 1507 1507 1508 1509 1511 1512 1514 1515 1516 1517 1519 1520 1521 1523 1524 1526 1527 1528 1529 1530 1530 1531 1532 1532 1532 1532 1532 1532 1532 1532 1531 1531 1531 1531 1531 1531 1531 1531 1531 1531 1531
1501 1507 1512 1505 1502 1503 1508 1515 1506 1505 1507 1508 1510 1511 1512 1514 1515 1516 1518 1519 1521 1522 1523 1525 1526 1528 1529 1529 1530 1531 1532 1532 1532 1532 1532 1532 1532 1532 1532 1532 1532 1532 1532 1532 1531 1531 1531 1531 1531
1509 1515 1513 1507 1501 1502 1507 1511 1505 1504 1505 1507 1508 1509 1510 1512 1513 1515 1516 1518 1519 1521 1522 1524 1526 1527 1528 1529 1530 1531 1531 1532 1532 1532 1532 1532 1533 1533 1533 1532 1532 1532 1532 1532 1532 1532 1532 1532 1532
1515 1514 1511 1509 1501 1502 1507 1508 1503 1503 1504 1505 1506 1508 1508 1510 1511 1513 1515 1517 1518 1520 1521 1523 1525 1526 1527 1528 1529 1530 1531 1531 1532 1532 1532 1532 1532 1532 1532 1532 1533 1532 1532 1532 1533 1532 1533 1533 1532
1505 1508 1510 1505 1497 1501 1506 1506 1503 1502 1503 1504 1504 1505 1506 1508 1510 1512 1514 1515 1517 1519 1520 1522 1523 1525 1526 1527 1528 1529 1530 1530 1531 1531 1532 1532 1532 1532 1532 1532 1533 1533 1533 1533 1533 1533 1533 1533 1533
1503 1508 1508 1502 1496 1500 1505 1505 1501 1500 1500 1500 1501 1502 1504 1506 1508 1510 1512 1514 1515 1517 1519 1520 1522 1523 1525 1526 1527 1528 1529 1530 1530 1531 1531 1532 1532 1532 1532 1532 1533 1533 1533 1533 1533 1533 1533 1533 1533
1502 1505 1505 1504 1500 1500 1504 1509 1503 1499 1498 1498 1498 1499 1501 1502 1504 1507 1509 1511 1513 1514 1516 1518 1520 1522 1523 1524 1526 1527 1528 1529 1529 1530 1530 1531 1531 1532 1532 1532 1532 1532 1532 1532 1533 1533 1533 1532 1533
1504 1496 1497 1500 1507 1513 1509 1522 1507 1499 1498 1497 1496 1497 1498 1500 1502 1504 1506 1508 1510 1512 1515 1517 1518 1520 1522 1523 1524 1525 1525 1526 1527 1528 1529 1530 1531 1531 1531 1531 1532 1532 1532 1532 1532 1532 1532 1532 1532
1495 1490 1494 1498 1505 1512 1511 1519 1511 1500 1499 1495 1494 1494 1495 1497 1499 1501 1504 1506 1508 1511 1513 1515 1516 1518 1520 1521 1522 1523 1524 1525 1526 1527 1528 1529 1529 1530 1530 1531 1531 1531 1531 1531 1532 1532 1532 1532 1532
1489 1493 1498 1505 1511 1521 1511 1516 1513 1501 1494 1491 1491 1491 1493 1495 1497 1499 1502 1504 1506 1509 1511 1513 1514 1516 1517 1518 1519 1521 1522 1523 1524 1525 1526 1527 1528 1529 1529 1529 1530 1530 1530 1530 1531 1531 1531 1531 1531
1492 1507 1522 1524 1529 1523 1506 1509 1507 1489 1485 1485 1486 1488 1490 1493 1495 1497 1499 1502 1504 1506 1508 1510 1512 1513 1515 1516 1517 1518 1520 1521 1522 1523 1524 1525 1526 1526 1527 1528 1528 1529 1529 1529 1530 1530 1530 1530 1529
1495 1504 1523 1531 1530 1521 1508 1509 1498 1485 1482 1483 1484 1486 1488 1491 1493 1495 1497 1499 1501 1503 1505 1507 1509 1510 1512 1513 1515 1516 1517 1518 1520 1521 1522 1523 1524 1524 1525 1526 1527 1527 1528 1528 1528 1528 1528 1528 1528
1495 1501 1502 1515 1516 1521 1515 1504 1493 1485 1484 1484 1485 1486 1487 1489 1491 1492 1494 1496 1499 1501 1502 1504 1506 1508 1509 1511 1512 1513 1515 1516 1517 1519 1520 1521 1522 1523 1523 1524 1525 1525 1526 1526 1527 1527 1527 1527 1527
1488 1493 1506 1514 1522 1526 1516 1509 1503 1491 1487 1485 1485 1485 1486 1487 1489 1491 1492 1494 1496 1498 1500 1502 1503 1505 1507 1509 1510 1511 1512 1513 1515 1517 1518 1519 1520 1521 1521 1522 1523 1523 1524 1524 1525 1525 1525 1525 1525
1491 1494 1501 1511 1515 1522 1523 1512 1487 1486 1484 1484 1483 1483 1484 1486 1487 1489 1490 1492 1495 1496 1498 1500 1501 1503 1505 1506 1508 1508 1510 1511 1513 1514 1516 1517 1518 1518 1519 1520 1521 1521 1522 1522 1523 1523 1523 1523 1523
1487 1491 1499 1512 1513 1514 1518 1509 1480 1480 1480 1481 1481 1482 1483 1484 1485 1487 1489 1491 1493 1494 1496 1497 1498 1500 1502 1504 1505 1506 1508 1509 1510 1511 1513 1514 1515 1516 1517 1518 1519 1519 1520 1520 1521 1521 1521 1521 1521